SCP
0 0 0 0 0 0 0 0 0 0 0 0 0 0 0 0 0 0 0 0 0 0 0 0 1 1 1 1 1 1 1 1 1 1 0 0 0 0 0 0 1 1 1 1
0 0 0 0 0 0 0 0 0 0 0 0 0 0 0 0 0 0 0 0 0 0 0 0 1 1 1 1 1 1 1 1 1 1 1 0 0 0 0 0 0 1 1 1
0 0 0 0 0 0 0 0 0 0 0 0 0 0 0 0 0 0 0 0 0 0 0 0 0 1 1 1 1 1 1 1 1 1 1 1 0 0 0 0 0 0 1 1
0 0 0 0 0 0 0 0 0 0 0 0 0 0 0 0 0 0 0 0 0 0 0 0 0 1 1 1 1 1 1 1 1 1 1 1 1 1 0 0 0 0 0 1
0 0 0 0 0 0 0 0 0 0 0 0 0 0 0 0 0 0 0 0 0 0 0 0 0 0 1 1 1 1 1 1 1 1 1 1 1 1 1 1 0 0 0 0
0 0 0 0 0 0 0 0 0 0 0 0 0 0 0 0 0 0 0 0 0 0 0 0 0 0 0 1 1 1 1 1 1 1 1 1 1 1 1 1 1 0 0 0
0 0 0 0 0 0 0 0 0 0 0 0 0 0 0 0 0 0 0 0 0 0 0 0 0 0 0 0 1 1 1 1 1 1 1 1 1 1 1 1 1 0 0 0
0 0 0 0 0 0 0 0 0 0 0 0 0 0 0 0 0 0 0 0 0 0 0 0 0 0 0 0 0 1 1 1 1 1 1 1 1 1 1 1 1 1 0 0
0 0 0 0 0 0 0 0 0 0 0 0 0 0 0 0 0 0 0 0 0 0 0 0 0 0 0 0 0 0 1 1 1 1 1 1 1 1 1 1 1 1 1 0
0 0 0 0 0 0 0 0 0 0 0 0 0 0 0 0 0 0 0 0 0 0 0 0 0 0 0 0 0 0 0 1 1 1 1 1 1 1 1 1 1 1 1 1
0 0 0 0 0 0 0 0 0 0 0 0 0 0 0 0 0 0 0 0 0 0 0 0 0 0 0 0 0 0 0 0 0 0 0 0 0 1 1 1 1 1 1 0
0 0 0 0 0 0 0 0 0 0 0 0 0 0 0 0 0 0 0 0 0 0 0 0 0 0 0 0 0 0 0 0 0 0 0 0 0 0 1 1 1 0 0 0
0 0 0 0 0 0 0 0 0 0 0 0 0 0 0 0 0 0 0 0 0 0 0 0 0 0 0 0 0 0 0 0 0 0 0 0 0 0 0 1 1 1 1 1
0 0 0 0 0 0 0 0 0 0 0 0 0 0 0 0 0 0 0 0 0 0 0 0 0 0 0 0 0 0 0 0 0 0 0 0 0 0 0 0 1 1 1 1
0 0 0 0 0 0 0 0 0 0 0 0 0 0 0 0 0 0 0 0 0 0 0 0 0 0 0 0 0 0 0 0 0 0 0 0 0 0 0 0 0 0 1 1
0 0 0 0 0 0 0 0 0 0 0 0 0 0 0 0 0 0 0 0 0 0 0 0 0 0 0 0 0 0 0 0 0 0 0 0 0 0 0 0 0 0 0 0
0 0 0 0 0 0 0 0 0 0 0 0 0 0 0 0 0 0 0 0 0 0 0 0 0 0 0 0 0 0 0 0 0 0 0 0 0 0 0 0 0 0 0 0
0 0 0 0 0 0 0 0 0 0 0 0 0 0 0 0 0 0 0 0 0 0 0 0 0 0 0 0 0 0 0 0 0 0 0 0 0 0 0 0 0 0 0 0
0 0 0 0 0 0 0 0 0 0 0 0 0 0 0 0 0 0 0 0 0 0 0 0 0 0 0 0 0 0 0 0 0 0 0 0 0 0 0 0 0 0 0 0
0 0 0 0 0 0 0 0 0 0 0 0 0 0 0 0 0 0 0 0 0 0 0 0 0 0 0 0 0 0 0 0 0 0 0 0 0 0 0 0 0 0 0 0
0 0 0 0 0 0 0 0 0 0 0 0 0 0 0 0 0 0 0 0 0 0 0 0 0 0 0 0 0 0 0 0 0 0 0 0 0 0 0 0 0 0 0 0
0 0 0 0 0 0 0 0 0 0 0 0 0 0 0 0 0 0 0 0 0 0 0 0 0 0 0 0 0 0 0 0 0 0 0 0 0 0 0 0 0 0 0 0
0 0 0 0 0 0 0 0 0 0 0 0 0 0 0 0 0 0 0 0 0 0 0 0 0 0 0 0 0 0 0 0 0 0 0 0 0 0 0 0 0 0 0 0
0 0 0 0 0 0 0 0 0 0 0 0 0 0 0 0 0 0 0 0 0 0 0 0 0 0 0 0 0 0 0 0 0 0 0 0 0 0 0 0 0 0 0 0
0 0 0 0 0 0 0 0 0 0 0 0 0 0 0 0 0 0 0 0 0 0 0 0 0 0 0 0 0 0 0 0 0 0 0 0 0 0 0 0 0 0 0 0
0 0 0 0 0 0 0 0 0 0 0 0 0 0 0 0 0 0 0 0 0 0 0 0 0 0 0 0 0 0 0 0 0 0 0 0 0 0 0 0 0 0 0 0
Wind_Speed
2 4 1 2 3 1 1 1 2 3 3 2 3 5 5 4 2 2 3 2 3 4 4 2 2 2 2 2 3 3 4 4 3 2 2 2 2 2 2 2 2 3 2 3
4 1 2 1 2 2 1 0 2 4 4 3 3 6 4 4 4 4 5 4 4 3 1 0 0 1 2 3 3 3 3 4 4 3 3 2 2 1 1 2 2 3 3 3
3 1 0 2 2 1 1 2 2 4 5 3 2 5 4 4 3 3 3 3 3 3 3 2 1 1 2 3 3 3 3 3 3 2 1 1 1 0 1 1 2 2 2 3
1 2 1 2 1 1 3 3 3 3 2 3 1 4 5 4 3 3 3 3 2 2 1 1 1 1 1 2 3 3 3 2 2 2 2 3 2 3 3 2 2 1 2 2
1 1 1 1 2 2 3 3 3 3 2 2 2 3 7 2 3 5 4 3 3 2 1 1 1 1 1 1 1 1 2 2 2 2 3 3 3 3 2 1 1 1 2 2
2 1 0 1 2 2 1 2 2 1 1 3 4 4 6 3 4 4 3 2 2 1 0 0 1 1 1 1 1 1 1 1 1 2 2 3 3 2 1 1 2 2 1 2
4 3 3 2 2 1 2 3 2 2 1 5 2 3 7 4 3 2 2 1 1 1 2 2 3 3 2 2 1 1 2 1 1 1 1 1 2 2 2 2 2 1 2 2
2 3 2 2 0 1 1 3 4 3 4 4 2 5 5 3 3 2 2 3 4 3 3 3 3 3 3 3 3 2 2 1 2 1 1 1 1 0 1 1 1 1 2 2
0 3 3 2 1 1 1 1 1 2 1 1 4 4 5 4 5 5 5 5 5 4 4 4 5 5 5 4 4 3 2 2 2 2 1 1 1 1 1 2 1 1 2 2
1 2 3 3 2 2 1 1 2 2 2 3 4 3 3 2 3 2 3 3 3 4 5 5 5 6 6 5 5 5 4 4 3 3 3 2 2 1 1 1 2 2 3 3
1 0 3 3 1 1 1 1 1 2 2 2 3 5 2 2 1 1 1 1 2 3 4 4 4 4 5 5 5 5 5 5 5 4 3 3 3 2 2 2 2 2 3 3
1 2 1 4 4 1 1 1 2 2 2 2 2 6 3 1 1 1 1 1 2 2 2 3 4 4 5 6 6 6 5 5 5 4 4 4 3 4 3 3 3 3 3 3
1 3 2 5 4 3 1 1 1 1 2 2 3 7 3 3 3 2 1 2 1 1 2 2 3 4 4 5 5 5 5 5 5 5 4 5 4 4 4 4 4 3 3 4
3 2 4 5 4 2 4 4 3 3 3 4 7 8 7 5 4 4 3 3 1 0 1 2 2 2 3 3 4 4 5 5 5 5 5 5 5 5 4 4 4 4 4 4
3 1 2 4 5 4 5 7 6 6 6 7 8 8 10 7 5 4 3 2 1 1 1 1 1 2 3 3 4 4 4 5 5 5 5 5 5 5 5 5 5 5 4 4
2 1 1 4 4 4 7 10 10 9 8 9 9 11 9 6 3 2 2 2 2 2 2 1 2 2 3 3 4 4 4 5 5 4 5 5 5 5 5 5 5 5 5 5
1 2 1 4 5 5 7 8 7 6 6 6 9 9 3 2 3 3 3 3 3 3 2 2 2 2 3 3 3 4 4 4 4 4 5 5 5 5 5 5 5 5 5 5
3 3 1 2 4 5 8 2 4 6 7 7 7 6 4 5 4 3 3 4 4 3 3 2 2 2 2 2 3 3 3 4 4 5 5 5 5 5 5 5 5 5 5 5
4 5 2 1 2 10 10 5 4 4 7 6 8 7 5 4 2 4 3 3 4 3 3 3 2 2 2 2 2 3 3 4 4 5 6 6 6 5 5 5 5 5 4 4
2 3 4 3 3 9 8 3 1 1 7 5 5 6 5 3 3 6 3 2 2 1 1 1 1 1 1 2 2 2 3 4 4 5 6 6 5 5 5 6 6 5 4 4
3 3 5 5 6 12 9 3 2 3 7 3 4 5 5 5 6 4 2 2 2 1 1 1 1 1 2 2 2 2 3 4 5 5 6 6 5 5 6 5 5 5 4 4
9 7 7 6 6 13 5 5 7 9 4 3 3 4 4 5 4 2 2 2 2 1 1 1 1 2 2 2 2 3 4 5 5 5 6 6 6 5 5 5 5 5 4 4
9 11 9 12 12 7 5 9 6 4 4 4 4 4 3 4 4 3 3 3 3 2 2 1 1 1 2 2 2 3 5 5 5 5 6 6 6 5 5 5 5 4 4 4
6 5 5 7 11 9 8 8 7 5 6 5 4 4 4 5 5 4 4 3 3 2 2 1 1 2 3 3 3 3 5 5 4 5 6 6 5 5 5 4 4 4 4 4
8 6 6 9 10 7 9 10 9 7 6 5 4 4 5 5 5 5 4 4 3 2 2 1 2 2 3 3 3 3 4 4 4 5 5 5 5 5 5 5 4 5 5 5
9 10 10 12 9 8 7 5 5 6 7 7 6 5 4 5 5 5 4 4 3 3 2 2 2 3 3 3 4 4 3 3 3 4 5 4 4 4 4 5 5 7 7 9
Wind_Direction
64 81 134 210 196 159 138 174 277 280 305 312 253 265 281 288 285 265 263 247 226 232 243 219 195 176 159 157 160 172 175 174 165 175 190 200 217 220 214 216 213 204 205 202
71 24 266 157 123 98 87 343 295 300 322 320 285 278 271 261 244 235 236 242 238 243 274 261 153 140 156 170 181 178 178 178 180 191 196 202 200 217 216 220 222 217 213 209
109 252 219 92 56 112 201 214 254 289 326 323 310 297 280 270 258 264 257 250 247 222 222 223 189 184 175 174 187 189 191 184 185 180 153 105 101 75 226 254 248 243 222 217
38 317 104 115 208 187 247 229 240 280 326 302 292 281 283 259 270 274 275 274 253 248 228 219 181 156 196 216 201 189 183 176 175 162 156 169 195 215 231 237 244 254 229 224
296 303 129 198 235 201 236 231 230 250 239 298 267 246 281 266 254 262 261 257 255 245 218 207 194 192 208 243 207 191 172 172 173 167 176 188 215 231 239 236 233 244 246 238
291 297 230 240 266 206 264 42 37 32 88 254 232 211 274 246 243 257 259 256 268 293 346 299 348 26 7 357 29 64 108 152 189 183 189 196 209 220 222 243 240 254 271 272
343 339 348 19 37 13 74 95 56 14 297 249 238 217 255 278 282 245 236 261 323 19 28 21 15 14 11 14 31 49 79 46 24 98 169 211 224 218 221 242 248 267 276 278
17 319 328 359 114 215 207 144 156 191 222 275 274 234 263 315 348 26 57 62 55 35 30 24 5 2 9 13 19 36 58 48 41 61 53 34 3 309 285 292 287 280 277 278
74 286 317 327 316 167 148 173 189 137 71 278 265 280 302 3 11 27 41 46 38 29 26 25 19 21 21 22 20 25 41 41 36 41 48 64 47 23 349 343 331 312 302 304
138 288 308 320 1 12 96 130 88 115 161 253 274 259 264 317 321 355 16 34 25 23 27 27 24 22 21 21 20 28 37 36 26 25 23 14 13 3 343 346 332 328 322 322
85 157 317 348 359 300 51 73 119 128 168 184 267 272 240 221 234 265 279 26 24 20 15 15 19 21 23 23 23 25 25 28 23 15 13 12 2 358 359 353 334 323 323 324
19 109 295 282 285 294 162 159 139 153 249 232 244 273 300 302 328 335 330 358 21 34 19 18 20 22 23 22 18 19 19 23 17 12 16 14 4 2 357 342 333 329 323 321
45 93 19 346 344 0 346 272 185 151 153 199 210 264 312 3 3 2 339 327 355 32 30 28 27 23 17 15 13 12 11 11 8 10 15 13 5 0 352 339 333 330 325 324
80 110 169 207 242 263 279 280 257 191 193 225 232 257 288 306 310 314 313 311 314 347 24 33 29 12 3 3 6 7 5 2 1 6 10 8 359 354 347 341 340 337 334 331
79 159 240 261 274 269 264 267 254 230 219 222 246 252 266 271 271 275 281 288 297 297 322 353 349 352 355 359 1 1 358 354 354 0 3 356 349 349 349 348 346 345 343 337
61 147 327 299 300 296 282 267 253 246 239 239 254 265 261 265 259 261 259 254 252 263 268 299 325 338 344 347 345 347 347 346 351 357 355 349 346 347 347 343 344 347 345 342
106 114 54 284 319 350 285 248 225 225 225 214 236 248 249 254 250 236 232 230 234 244 250 269 286 294 312 324 331 329 329 338 348 350 347 347 347 345 341 341 345 344 339 339
160 135 150 305 9 258 245 252 213 233 247 230 242 255 250 241 250 236 223 217 232 241 245 257 268 281 304 320 329 330 340 347 347 345 343 343 342 338 336 340 339 336 335 334
178 156 144 137 277 280 289 266 205 217 264 239 239 253 252 254 299 278 256 224 226 233 231 233 241 258 293 319 326 339 346 347 347 343 337 333 331 328 329 331 327 324 324 324
139 145 147 159 214 250 255 244 213 139 277 255 228 237 235 207 252 261 243 223 232 241 243 258 276 298 311 322 336 343 338 338 330 324 320 320 322 320 318 316 314 314 313 309
148 173 194 201 232 261 254 245 128 178 251 250 224 226 214 213 231 244 213 217 219 224 256 265 264 286 299 328 345 331 327 318 316 320 318 318 317 312 306 309 311 311 310 311
181 179 195 175 212 253 227 162 193 222 239 234 230 221 219 233 251 252 233 233 234 240 260 264 261 294 324 350 344 320 315 318 324 321 318 316 315 313 311 312 311 311 308 306
205 196 190 196 217 237 196 207 226 218 230 236 232 238 226 244 249 245 242 243 239 239 253 266 259 305 333 345 337 310 314 326 327 323 315 313 314 314 314 309 307 309 307 299
240 204 207 244 254 250 247 249 254 239 234 242 236 235 223 234 243 243 241 245 243 249 253 273 282 293 309 328 330 312 317 327 323 312 309 310 313 314 316 309 303 298 294 291
216 190 212 247 262 274 260 243 246 247 241 242 240 232 229 230 238 236 237 238 239 248 263 262 251 265 285 310 311 315 324 327 314 306 304 307 307 305 306 302 293 292 284 280
196 194 201 233 226 216 241 231 225 227 231 229 233 242 236 223 232 235 235 234 229 234 245 255 260 267 281 295 296 303 313 310 301 301 304 303 303 302 301 303 303 299 296 301